Weather History for Charlottetown, P. E. I., Prince Edward Island

Change the Weather History Date:

Friday, March 15, 2013

  Actual Average Record
Temperature  
Mean Temperature 29 °F -  
Max Temperature 32 °F 38 °F - ()
Min Temperature 26 °F 24 °F - ()
Degree Days  
Heating Degree Days 36    
Moisture  
Dew Point 25 °F    
Average Humidity 87    
Maximum Humidity 93    
Minimum Humidity 71    
Precipitation  
Precipitation 0.12 in 0.12 in - ()
Sea Level Pressure  
Sea Level Pressure 29.56 in    
Wind  
Wind Speed 7 mph ()    
Max Wind Speed 13 mph    
Max Gust Speed -    
Visibility 9.0 miles    
Events Snow    
T = Trace of Precipitation, MM = Missing Value Source: Averaged Metar Reports

Daily Weather History Graph

Daily Weather History Graph

Search for Another Location

Airport:

Trip Planner

Search our weather history database for the weather conditions in past years. The results will help you decide how hot, cold, wet, or windy it might be!

Date:

Astronomy

Mar. 15, 2013 Rise Set
Actual Time 7:24 AM ADT 7:18 PM ADT
Civil Twilight 6:54 AM ADT 7:48 PM ADT
Nautical Twilight 6:20 AM ADT 8:23 PM ADT
Astronomical Twilight 5:44 AM ADT 8:59 PM ADT
Moon 8:57 AM ADT (3/15) 11:44 PM ADT (3/15)
Length of Visible Light 12h 53m
Length of Day
11h 53m
Waxing Crescent, 15% of the Moon is Illuminated
Mar 15
Waxing Crescent
Mar 19
First Quarter
Mar 27
Full
Apr 3
Last Quarter
Apr 10
New

Hourly Weather History & Observations

Time (ADT) Temp. Windchill Dew Point Humidity Pressure Visibility Wind Dir Wind Speed Gust Speed Precip Events Conditions
12:00 AM 32.0 °F 24.8 °F 28.4 °F 87% 29.59 in 15.0 mi WSW 8.1 mph - N/A   Clear
1:00 AM 30.2 °F 26.7 °F 28.4 °F 93% 29.59 in 15.0 mi West 3.5 mph - N/A   Mostly Cloudy
2:00 AM 30.2 °F - 28.4 °F 93% 29.60 in 15.0 mi Calm Calm - N/A   Mostly Cloudy
3:00 AM 29 °F - 26 °F 86% 29.60 in 15 mi North 5.8 mph - -   Partly Cloudy
3:00 AM 28.4 °F 21.2 °F 26.6 °F 93% 29.59 in 15.0 mi North 6.9 mph - N/A   Scattered Clouds
4:00 AM 28.4 °F 20.4 °F 24.8 °F 86% 29.58 in 15.0 mi North 8.1 mph - N/A   Mostly Cloudy
5:00 AM 28.4 °F 19.1 °F 23.0 °F 80% 29.57 in 15.0 mi North 10.4 mph - N/A   Overcast
6:00 AM 28.4 °F 19.7 °F 23.0 °F 80% 29.58 in 15.0 mi NNE 9.2 mph - N/A   Overcast
7:00 AM 28.4 °F 21.2 °F 23.0 °F 80% 29.57 in 15.0 mi North 6.9 mph - N/A   Mostly Cloudy
8:00 AM 28.4 °F 22.2 °F 23.0 °F 80% 29.58 in 15.0 mi North 5.8 mph - N/A   Mostly Cloudy
9:00 AM 29 °F - 23 °F 71% 29.58 in 15 mi North 5.8 mph - -   Partly Cloudy
9:00 AM 30.2 °F 22.6 °F 23.0 °F 75% 29.58 in 15.0 mi North 8.1 mph - N/A   Mostly Cloudy
10:00 AM 30.2 °F 21.3 °F 23.0 °F 75% 29.58 in 15.0 mi North 10.4 mph - N/A   Overcast
11:00 AM 30.2 °F 21.9 °F 23.0 °F 75% 29.59 in 15.0 mi North 9.2 mph - N/A   Overcast
12:00 PM 32.0 °F 24.2 °F 24.8 °F 75% 29.58 in 15.0 mi North 9.2 mph - N/A   Mostly Cloudy
1:00 PM 30.2 °F 20.2 °F 23.0 °F 75% 29.57 in 15.0 mi North 12.7 mph - N/A   Overcast
2:00 PM 28.4 °F 18.0 °F 23.0 °F 80% 29.56 in 15.0 mi North 12.7 mph - N/A   Overcast
2:16 PM 26.6 °F 15.7 °F 23.0 °F 86% 29.55 in 6.0 mi North 12.7 mph - N/A Snow Light Snow Showers
2:38 PM 26.6 °F 16.8 °F 24.8 °F 93% 29.55 in 2.0 mi NNW 10.4 mph - N/A Snow Light Snow
3:00 PM 27 °F - 24 °F 85% 29.54 in 2 mi NNW 10.4 mph - - Snow Light Snow
3:00 PM 26.6 °F 17.5 °F 24.8 °F 93% 29.54 in 2.0 mi North 9.2 mph - N/A Snow Light Snow
4:00 PM 26.6 °F 16.8 °F 24.8 °F 93% 29.54 in 2.0 mi North 10.4 mph - N/A Snow Light Snow
5:00 PM 26.6 °F 17.5 °F 24.8 °F 93% 29.53 in 1.5 mi North 9.2 mph - N/A Snow Light Snow
6:00 PM 26.6 °F 17.5 °F 24.8 °F 93% 29.52 in 2.0 mi North 9.2 mph - N/A Snow Light Snow
7:00 PM 26.6 °F 18.2 °F 24.8 °F 93% 29.53 in 2.0 mi NNW 8.1 mph - N/A Snow Light Snow
8:00 PM 26.6 °F 19.1 °F 24.8 °F 93% 29.54 in 2.0 mi NNW 6.9 mph - N/A Snow Light Snow
9:00 PM 26 °F - 25 °F 93% 29.54 in 2 mi NNW 6.9 mph - - Snow Light Snow
9:00 PM 26.6 °F 20.0 °F 24.8 °F 93% 29.54 in 2.0 mi NNW 5.8 mph - N/A Snow Light Snow
10:00 PM 26.6 °F 18.2 °F 24.8 °F 93% 29.54 in 6.0 mi NW 8.1 mph - N/A Snow Light Snow
10:16 PM 26.6 °F 18.2 °F 24.8 °F 93% 29.54 in 2.0 mi NNW 8.1 mph - N/A Snow Light Snow
10:25 PM 26.6 °F 19.1 °F 24.8 °F 93% 29.54 in 1.5 mi NW 6.9 mph - N/A Snow Light Snow
11:00 PM 26.6 °F 20.0 °F 24.8 °F 93% 29.54 in 2.5 mi NNW 5.8 mph - N/A Snow Light Snow
11:44 PM 26.6 °F 19.1 °F 24.8 °F 93% 29.53 in 3.0 mi NW 6.9 mph - N/A Snow Light Snow